Time,TemperatureF,DewpointF,PressureIn,WindDirection,WindDirectionDegrees,WindSpeedMPH,WindSpeedGustMPH,Humidity,HourlyPrecipIn,Conditions,Clouds,dailyrainin,SoftwareType,DateUTC
2013-07-19 00:11:00,85.2,81.0,31.39,NNE,13,0.0,-999.0,87,-99.99,,,0.00,weatherlink.com 1.10,2013-07-19 04:11:00,
2013-07-19 00:27:00,84.9,81.0,31.39,NNE,13,0.0,-999.0,88,-99.99,,,0.00,weatherlink.com 1.10,2013-07-19 04:27:00,
2013-07-19 00:42:00,84.8,81.0,31.39,NNE,13,0.0,-999.0,88,-99.99,,,0.00,weatherlink.com 1.10,2013-07-19 04:42:00,
2013-07-19 00:57:00,84.6,81.0,31.39,NNE,13,0.0,-999.0,88,-99.99,,,0.00,weatherlink.com 1.10,2013-07-19 04:57:00,
2013-07-19 01:09:00,84.2,80.3,31.39,NNE,13,0.0,0.0,88,0.00,,,0.00,Wunderground v.1.15,2013-07-19 05:09:00,
2013-07-19 01:14:00,84.2,80.3,31.39,NNE,13,0.0,0.0,88,0.00,,,0.00,Wunderground v.1.15,2013-07-19 05:14:00,
2013-07-19 01:19:00,84.1,80.2,31.39,NNE,13,0.0,0.0,88,0.00,,,0.00,Wunderground v.1.15,2013-07-19 05:19:00,
2013-07-19 01:27:00,83.9,80.0,31.39,NNE,13,0.0,-999.0,88,-99.99,,,0.00,weatherlink.com 1.10,2013-07-19 05:27:00,
2013-07-19 01:42:00,83.7,80.0,31.39,NNE,13,0.0,-999.0,87,-99.99,,,0.00,weatherlink.com 1.10,2013-07-19 05:42:00,
2013-07-19 01:54:00,83.5,79.2,31.39,NNE,13,0.0,0.0,87,0.00,,,0.00,Wunderground v.1.15,2013-07-19 05:54:00,
2013-07-19 01:56:00,83.5,79.0,31.39,NNE,13,0.0,-999.0,87,-99.99,,,0.00,weatherlink.com 1.10,2013-07-19 05:56:00,
2013-07-19 02:04:00,83.3,79.4,31.39,NNE,13,0.0,0.0,88,0.00,,,0.00,Wunderground v.1.15,2013-07-19 06:04:00,
2013-07-19 02:09:00,83.2,78.9,31.39,NNE,13,0.0,0.0,87,0.00,,,0.00,Wunderground v.1.15,2013-07-19 06:09:00,
2013-07-19 02:12:00,83.2,79.0,31.39,NNE,13,0.0,-999.0,87,-99.99,,,0.00,weatherlink.com 1.10,2013-07-19 06:12:00,
2013-07-19 02:19:00,83.1,78.8,31.39,NNE,13,0.0,0.0,87,0.00,,,0.00,Wunderground v.1.15,2013-07-19 06:19:00,
2013-07-19 02:27:00,83.0,79.0,31.39,NNE,13,0.0,-999.0,87,-99.99,,,0.00,weatherlink.com 1.10,2013-07-19 06:27:00,
2013-07-19 02:42:00,82.8,79.0,31.39,NNE,13,0.0,-999.0,87,-99.99,,,0.00,weatherlink.com 1.10,2013-07-19 06:42:00,
2013-07-19 02:57:00,82.4,78.0,31.39,NNE,13,0.0,-999.0,87,-99.99,,,0.00,weatherlink.com 1.10,2013-07-19 06:57:00,
2013-07-19 03:12:00,82.1,78.0,31.39,NNE,13,0.0,-999.0,87,-99.99,,,0.00,weatherlink.com 1.10,2013-07-19 07:12:00,
2013-07-19 03:27:00,81.8,78.0,31.39,NNE,13,0.0,-999.0,88,-99.99,,,0.00,weatherlink.com 1.10,2013-07-19 07:27:00,
2013-07-19 03:42:00,81.6,78.0,31.39,NNE,13,0.0,-999.0,88,-99.99,,,0.00,weatherlink.com 1.10,2013-07-19 07:42:00,
2013-07-19 03:57:00,81.3,78.0,31.39,NNE,13,0.0,-999.0,88,-99.99,,,0.00,weatherlink.com 1.10,2013-07-19 07:57:00,
2013-07-19 04:12:00,81.0,77.0,31.39,NNE,13,0.0,-999.0,88,-99.99,,,0.00,weatherlink.com 1.10,2013-07-19 08:12:00,
2013-07-19 04:27:00,80.8,77.0,31.39,NNE,13,0.0,-999.0,89,-99.99,,,0.00,weatherlink.com 1.10,2013-07-19 08:27:00,
2013-07-19 04:42:00,80.5,77.0,31.39,NNE,13,0.0,-999.0,89,-99.99,,,0.00,weatherlink.com 1.10,2013-07-19 08:42:00,
2013-07-19 04:57:00,80.2,77.0,31.39,NNE,13,0.0,-999.0,89,-99.99,,,0.00,weatherlink.com 1.10,2013-07-19 08:57:00,
2013-07-19 05:12:00,80.1,77.0,31.39,NNE,13,0.0,-999.0,89,-99.99,,,0.00,weatherlink.com 1.10,2013-07-19 09:12:00,
2013-07-19 05:27:00,80.2,76.0,31.39,NNE,13,0.0,-999.0,88,-99.99,,,0.00,weatherlink.com 1.10,2013-07-19 09:27:00,
2013-07-19 05:42:00,80.3,77.0,31.39,NNE,13,0.0,-999.0,88,-99.99,,,0.00,weatherlink.com 1.10,2013-07-19 09:42:00,
2013-07-19 05:57:00,80.2,77.0,31.39,NNE,13,0.0,-999.0,89,-99.99,,,0.00,weatherlink.com 1.10,2013-07-19 09:57:00,
2013-07-19 06:12:00,80.0,77.0,31.39,North,10,0.0,-999.0,89,-99.99,,,0.00,weatherlink.com 1.10,2013-07-19 10:12:00,
2013-07-19 06:28:00,79.8,76.0,31.39,North,10,0.0,-999.0,89,-99.99,,,0.00,weatherlink.com 1.10,2013-07-19 10:28:00,
2013-07-19 06:43:00,79.7,77.0,31.39,North,10,0.0,-999.0,90,-99.99,,,0.00,weatherlink.com 1.10,2013-07-19 10:43:00,
2013-07-19 06:58:00,79.8,77.0,31.39,North,10,0.0,-999.0,90,-99.99,,,0.00,weatherlink.com 1.10,2013-07-19 10:58:00,
2013-07-19 07:13:00,80.4,77.0,31.39,North,10,0.0,-999.0,89,-99.99,,,0.00,weatherlink.com 1.10,2013-07-19 11:13:00,
2013-07-19 07:28:00,81.2,77.0,31.39,NNE,17,0.0,-999.0,88,-99.99,,,0.00,weatherlink.com 1.10,2013-07-19 11:28:00,
2013-07-19 07:43:00,82.1,78.0,31.39,NNE,17,0.0,-999.0,86,-99.99,,,0.00,weatherlink.com 1.10,2013-07-19 11:43:00,
2013-07-19 07:58:00,83.0,78.0,31.39,NNE,17,0.0,-999.0,85,-99.99,,,0.00,weatherlink.com 1.10,2013-07-19 11:58:00,
2013-07-19 08:13:00,83.9,79.0,31.38,NNE,17,0.0,-999.0,84,-99.99,,,0.00,weatherlink.com 1.10,2013-07-19 12:13:00,
2013-07-19 08:28:00,85.0,79.0,31.38,NNE,17,0.0,-999.0,83,-99.99,,,0.00,weatherlink.com 1.10,2013-07-19 12:28:00,
2013-07-19 08:43:00,86.1,80.0,31.38,NNE,17,0.0,-999.0,81,-99.99,,,0.00,weatherlink.com 1.10,2013-07-19 12:43:00,
2013-07-19 08:58:00,87.3,81.0,31.38,NNE,17,0.0,-999.0,80,-99.99,,,0.00,weatherlink.com 1.10,2013-07-19 12:58:00,
2013-07-19 09:13:00,88.2,81.0,31.38,NNE,17,0.0,-999.0,78,-99.99,,,0.00,weatherlink.com 1.10,2013-07-19 13:13:00,
2013-07-19 09:28:00,89.7,82.0,31.38,NNE,17,0.0,-999.0,77,-99.99,,,0.00,weatherlink.com 1.10,2013-07-19 13:28:00,
2013-07-19 09:43:00,91.1,82.0,31.38,NNE,17,0.0,-999.0,75,-99.99,,,0.00,weatherlink.com 1.10,2013-07-19 13:43:00,
2013-07-19 09:58:00,91.1,82.0,31.38,NNE,15,0.0,-999.0,74,-99.99,,,0.00,weatherlink.com 1.10,2013-07-19 13:58:00,
2013-07-19 10:13:00,91.5,82.0,31.38,NW,323,0.0,-999.0,73,-99.99,,,0.00,weatherlink.com 1.10,2013-07-19 14:13:00,
2013-07-19 10:28:00,91.9,82.0,31.38,NW,323,0.0,-999.0,73,-99.99,,,0.00,weatherlink.com 1.10,2013-07-19 14:28:00,
2013-07-19 10:43:00,92.4,83.0,31.38,NW,324,0.0,-999.0,73,-99.99,,,0.00,weatherlink.com 1.10,2013-07-19 14:43:00,
2013-07-19 10:58:00,92.8,82.0,31.38,WNW,294,0.0,-999.0,71,-99.99,,,0.00,weatherlink.com 1.10,2013-07-19 14:58:00,
2013-07-19 11:13:00,93.0,81.0,31.38,WSW,239,0.0,-999.0,69,-99.99,,,0.00,weatherlink.com 1.10,2013-07-19 15:13:00,
2013-07-19 11:28:00,93.4,82.0,31.38,West,263,0.0,-999.0,69,-99.99,,,0.00,weatherlink.com 1.10,2013-07-19 15:28:00,
2013-07-19 11:43:00,93.5,82.0,31.38,West,263,0.0,-999.0,69,-99.99,,,0.00,weatherlink.com 1.10,2013-07-19 15:43:00,
2013-07-19 11:58:00,93.8,82.0,31.38,NW,308,0.0,-999.0,68,-99.99,,,0.00,weatherlink.com 1.10,2013-07-19 15:58:00,
2013-07-19 12:13:00,93.8,82.0,31.38,WNW,298,0.0,-999.0,69,-99.99,,,0.00,weatherlink.com 1.10,2013-07-19 16:13:00,
2013-07-19 12:28:00,93.8,83.0,31.38,ESE,122,0.0,-999.0,71,-99.99,,,0.00,weatherlink.com 1.10,2013-07-19 16:28:00,
2013-07-19 12:43:00,94.1,83.0,31.38,ESE,109,0.0,-999.0,71,-99.99,,,0.00,weatherlink.com 1.10,2013-07-19 16:43:00,
2013-07-19 12:58:00,94.1,83.0,31.38,ESE,119,0.0,-999.0,70,-99.99,,,0.00,weatherlink.com 1.10,2013-07-19 16:58:00,
2013-07-19 13:13:00,94.4,83.0,31.38,ESE,123,0.0,-999.0,70,-99.99,,,0.00,weatherlink.com 1.10,2013-07-19 17:13:00,
2013-07-19 13:28:00,94.7,83.0,31.38,ESE,107,0.0,-999.0,69,-99.99,,,0.00,weatherlink.com 1.10,2013-07-19 17:28:00,
2013-07-19 13:43:00,94.8,83.0,31.38,ENE,78,0.0,-999.0,68,-99.99,,,0.00,weatherlink.com 1.10,2013-07-19 17:43:00,
2013-07-19 13:58:00,95.1,83.0,31.38,East,99,0.0,-999.0,69,-99.99,,,0.00,weatherlink.com 1.10,2013-07-19 17:58:00,
2013-07-19 14:13:00,95.1,83.0,31.38,SE,136,0.0,-999.0,68,-99.99,,,0.00,weatherlink.com 1.10,2013-07-19 18:13:00,
2013-07-19 14:28:00,95.1,83.0,31.38,WSW,242,0.0,-999.0,67,-99.99,,,0.00,weatherlink.com 1.10,2013-07-19 18:28:00,
2013-07-19 14:43:00,95.2,83.0,31.38,WNW,295,0.0,-999.0,67,-99.99,,,0.00,weatherlink.com 1.10,2013-07-19 18:43:00,
2013-07-19 14:58:00,95.4,82.0,31.38,WSW,249,0.0,-999.0,66,-99.99,,,0.00,weatherlink.com 1.10,2013-07-19 18:58:00,
2013-07-19 15:13:00,95.8,83.0,31.38,West,272,2.0,-999.0,67,-99.99,,,0.00,weatherlink.com 1.10,2013-07-19 19:13:00,
2013-07-19 15:28:00,96.4,83.0,31.38,West,272,0.0,-999.0,65,-99.99,,,0.00,weatherlink.com 1.10,2013-07-19 19:28:00,
2013-07-19 15:43:00,96.3,82.0,31.38,SE,144,0.0,-999.0,64,-99.99,,,0.00,weatherlink.com 1.10,2013-07-19 19:43:00,
2013-07-19 15:58:00,97.1,82.0,31.38,West,269,0.0,-999.0,63,-99.99,,,0.00,weatherlink.com 1.10,2013-07-19 19:58:00,
2013-07-19 16:13:00,96.5,82.0,31.38,South,190,0.0,-999.0,63,-99.99,,,0.00,weatherlink.com 1.10,2013-07-19 20:13:00,
2013-07-19 16:28:00,96.6,82.0,31.38,SW,231,0.0,-999.0,63,-99.99,,,0.00,weatherlink.com 1.10,2013-07-19 20:28:00,
2013-07-19 16:43:00,96.8,82.0,31.38,WSW,249,1.0,-999.0,63,-99.99,,,0.00,weatherlink.com 1.10,2013-07-19 20:43:00,
2013-07-19 16:58:00,96.2,82.0,31.38,South,171,0.0,-999.0,63,-99.99,,,0.00,weatherlink.com 1.10,2013-07-19 20:58:00,
2013-07-19 17:13:00,95.6,82.0,31.38,SW,228,0.0,-999.0,64,-99.99,,,0.00,weatherlink.com 1.10,2013-07-19 21:13:00,
2013-07-19 17:28:00,96.0,82.0,31.38,SW,236,1.0,-999.0,64,-99.99,,,0.00,weatherlink.com 1.10,2013-07-19 21:28:00,
2013-07-19 17:43:00,95.8,82.0,31.38,SW,217,0.0,-999.0,64,-99.99,,,0.00,weatherlink.com 1.10,2013-07-19 21:43:00,
2013-07-19 17:59:00,94.7,81.0,31.38,WSW,254,0.0,-999.0,65,-99.99,,,0.00,weatherlink.com 1.10,2013-07-19 21:59:00,
2013-07-19 18:13:00,93.5,81.0,31.38,WNW,301,0.0,-999.0,67,-99.99,,,0.00,weatherlink.com 1.10,2013-07-19 22:13:00,
2013-07-19 18:28:00,92.9,81.0,31.38,WSW,248,1.0,-999.0,68,-99.99,,,0.00,weatherlink.com 1.10,2013-07-19 22:28:00,
2013-07-19 18:44:00,92.4,81.0,31.38,NNE,15,0.0,-999.0,70,-99.99,,,0.00,weatherlink.com 1.10,2013-07-19 22:44:00,
2013-07-19 18:59:00,91.8,81.0,31.38,South,188,0.0,-999.0,70,-99.99,,,0.00,weatherlink.com 1.10,2013-07-19 22:59:00,
2013-07-19 19:14:00,91.3,81.0,31.38,South,188,0.0,-999.0,71,-99.99,,,0.00,weatherlink.com 1.10,2013-07-19 23:14:00,
2013-07-19 19:29:00,90.8,80.0,31.38,East,88,0.0,-999.0,71,-99.99,,,0.00,weatherlink.com 1.10,2013-07-19 23:29:00,
2013-07-19 19:44:00,90.5,81.0,31.38,East,83,0.0,-999.0,73,-99.99,,,0.00,weatherlink.com 1.10,2013-07-19 23:44:00,
2013-07-19 19:59:00,90.1,80.0,31.38,East,83,0.0,-999.0,72,-99.99,,,0.00,weatherlink.com 1.10,2013-07-19 23:59:00,
2013-07-19 20:14:00,89.7,80.0,31.38,East,83,0.0,-999.0,73,-99.99,,,0.00,weatherlink.com 1.10,2013-07-20 00:14:00,
2013-07-19 20:29:00,89.2,80.0,31.38,East,83,0.0,-999.0,74,-99.99,,,0.00,weatherlink.com 1.10,2013-07-20 00:29:00,
2013-07-19 20:44:00,88.7,80.0,31.38,NW,309,0.0,-999.0,75,-99.99,,,0.00,weatherlink.com 1.10,2013-07-20 00:44:00,
2013-07-19 20:59:00,88.6,80.0,31.38,NW,309,0.0,-999.0,76,-99.99,,,0.00,weatherlink.com 1.10,2013-07-20 00:59:00,
2013-07-19 21:14:00,88.4,80.0,31.38,NW,309,0.0,-999.0,77,-99.99,,,0.00,weatherlink.com 1.10,2013-07-20 01:14:00,
2013-07-19 21:29:00,88.1,80.0,31.38,NW,309,0.0,-999.0,77,-99.99,,,0.00,weatherlink.com 1.10,2013-07-20 01:29:00,
2013-07-19 21:44:00,87.7,80.0,31.38,NW,309,0.0,-999.0,78,-99.99,,,0.00,weatherlink.com 1.10,2013-07-20 01:44:00,
2013-07-19 21:59:00,87.3,80.0,31.38,NW,309,0.0,-999.0,79,-99.99,,,0.00,weatherlink.com 1.10,2013-07-20 01:59:00,
2013-07-19 22:14:00,87.0,80.0,31.38,NW,309,0.0,-999.0,79,-99.99,,,0.00,weatherlink.com 1.10,2013-07-20 02:14:00,
2013-07-19 22:29:00,86.7,80.0,31.38,NW,309,0.0,-999.0,80,-99.99,,,0.00,weatherlink.com 1.10,2013-07-20 02:29:00,
2013-07-19 22:43:00,86.2,79.0,31.38,NW,309,0.0,-999.0,78,-99.99,,,0.00,weatherlink.com 1.10,2013-07-20 02:43:00,
2013-07-19 22:58:00,85.7,77.0,31.38,NW,309,0.0,-999.0,76,-99.99,,,0.00,weatherlink.com 1.10,2013-07-20 02:58:00,
2013-07-19 23:13:00,85.4,76.0,31.38,NW,307,0.0,-999.0,74,-99.99,,,0.00,weatherlink.com 1.10,2013-07-20 03:13:00,
2013-07-19 23:28:00,85.2,76.0,31.38,NW,308,0.0,-999.0,74,-99.99,,,0.00,weatherlink.com 1.10,2013-07-20 03:28:00,
2013-07-19 23:44:00,84.8,77.0,31.38,NW,308,0.0,-999.0,76,-99.99,,,0.00,weatherlink.com 1.10,2013-07-20 03:44:00,
2013-07-19 23:59:00,84.2,77.0,31.38,NW,307,0.0,-999.0,78,-99.99,,,0.00,weatherlink.com 1.10,2013-07-20 03:59:00,